Weather in Petrovo-Krasnosillia

Ukraine / Luhansk Region     48°17′36″N   38°53′20″E
temp.,
°C
wind,
m/s
gust,
m/s
humid.,
%
clouds,
%
prec.,
mm/h
press.,
hPa
HPBL,
m
22 april, thu
thu2200:00+7ssw499285 0.4 1020261
03:00+7ssw38937 0.4 1021182
06:00+6ssw36945 0.0 1021135
09:00+11ssw44735 0.0 1022572
12:00+15ssw445629 0.8 10221428
15:00+16sw334899 2.6 10211629
18:00+13wsw2464100 1.3 1021114
21:00+10sw2275100 1.3 102224
23 april, fri
fri2300:00+9wsw2278100 0.0 102219
03:00+8sw22824 0.0 102219
06:00+7sw23857 0.0 102249
09:00+12sw45635 0.0 1022544
12:00+16sw554948 0.1 10211896
15:00+16ssw574495 0.4 10192177
18:00+14ssw68626 0.0 1018814
21:00+9ssw41078100 0.0 1019289
24 april, sat
sat2400:00+9ssw41173100 0.0 1017340
03:00+8ssw41078100 0.0 1016353
06:00+7ssw5108928 0.0 1015347
09:00+11sw7972100 0.1 10141113
12:00+7wnw688094 0.9 1016868
15:00+12w81040100 0.9 10152303
18:00+11w7104491 0.0 10151887
21:00+6wnw7137210 0.0 1019807
25 april, sun
sun2500:00+4w511590 0.0 1020521
03:00+3w5116822 0.0 1020540
06:00+2w4107635 0.0 1021446
09:00+7wnw565122 0.0 10211171
12:00+10wnw453959 0.0 10212010
15:00+11wnw3435100 0.0 10202165
18:00+11nw2239100 0.0 10201944
21:00+8ene1146100 0.0 102010
26 april, mon
mon2600:00+6sw236297 0.0 102049
03:00+5sw2267100 0.0 101918
06:00+5ssw2265100 0.0 101821
09:00+10sw3348100 0.0 1018687
12:00+12sw564070 0.0 10162111
15:00+12wsw7846100 0.0 10151941
18:00+8wnw797173 0.4 10161007
21:00+6wnw35640 0.4 1017194